Showing default

ESTRELA DU SOL-TELSTAR14, 28137

Orbit data source: Space-Track

ESTRELA DU SOL-TELSTAR14, 28137 is a payload satellite owned by Loral Sky Brazil (US,BR) in GEO that was launched on Sun, 11 Jan 2004 UTC via a ZENIT-3SL launch vehicle from the Sea Launch (SEAL). Payload-class satellites include a variety of spacecraft equipped with specific instruments for various scientific and technological missions. These include communications satellites like Starlink; space stations such as the ISS; scientific satellites like the Hubble; Earth observation satellites from companies like Planet Labs, Umbra, and HawkEye 360; GPS; miniature CubeSats for education and research; and military/defense satellites.

Not visible in the next 10 days
Identifier
28137, 2004-001A
Orbit
GEO
Country
Flag of USUS / USBZ
Flag of BRBR / USBZ
Related business
Manufacturer
SS/Loral
Mission
Non-operational Commercial Communications
Bus & Motor
SSL-1300, R-4D-11-164
Mass
4,694 kg wet, ~2,000 kg dry
Launch date (UTC)
2004-01-11 (22 years ago)
Launch vehicle
ZENIT-3SL
Launch site
Sea Launch (SEAL)
Object type
Payload
Rocket body
Debris
Shape & HBR
Box + 2 Pan, 15.5 m
Radar Cross Section
40.765 m², Large (>1 m²)

Expand to show TLE details & history
Last TLE update: 15 hours ago

TLE from 15 hours ago
0 ESTRELA DU SOL-TELSTAR14
1 28137U 04001A   26094.09142103 -.00000123  00000-0  00000-0 0  9994
2 28137  10.9325  45.2144 0006921 337.0424 217.2219  0.98833301 80854
Epoch: 2026-04-04T02:11Z
TLE epoch observation values (Epoch: 2026-04-04T02:11:38.776Z)
Latitude
-2.67513°
Longitude
13.86894°
Altitude
36,218.238 km
Speed
3.058 km/s
True Right ascension
15h 56m 47s
True Declination
-2° 40' 21"
Sunlit
Object was in daylight at epoch
Visualization orbit readout
Latitude
Unknown
Longitude
Unknown
Altitude
Unknown
Speed
Unknown
Apparent Right ascension
Unknown
Apparent Declination
Unknown
Sunlit
N/A
Visualization observer readout
Local Sidereal Time
23:29:59
Azimuth
Unknown
Elevation
Unknown
Doppler factor
Unknown
Orbital elements
Apogee altitude
36,225.208 km
Perigee altitude
36,166.277 km
Semi-major axis
42,573.879 km
Eccentricity
0.00069
Inclination
10.9325°
RAAN
45.2144°
Arg. of periapsis
337.0424°
True anomaly
217.17396°
Mean anomaly
217.2219°
Eccentric anomaly
217.19793°
Mean motion
0.24707 °/min
Orbital period
1,457.05 mins
BSTAR
0
Loading maneuver chart data...
Computing Atmospheric mass density...
Loading historical data...
Loading historical data...
Loading historical data...
Loading historical data...
Loading historical data...
Loading historical data...
Loading historical data...
Other satellites on launch #1 in the year 2004 (2004-01-11 UTC)

Documentation

Showing up to 5 results
|